• In Deutschland
  • Länderverzeichnis
  • Für 7 Tage
  • Wassertemperatur
  • Satellitenkarten
  • Wetterkarte
  • Widgets
  • user-avatar
    Anmelden

    Stündliche Wetter Kapan

    Heute, 24 April, Dienstag

    Zeit Temperatur Niederschläge Wind Luftdruck Luftfeuchtigkeit
    00:00 +9°C° 0 mm 2 m/S 681 mmHg 56%
    01:00 +9°C° 0 mm 2 m/S 681 mmHg 56%
    02:00 +10°C° 0 mm 1 m/S 682 mmHg 57%
    03:00 +9°C° 0 mm 2 m/S 682 mmHg 55%
    04:00 +10°C° 0 mm 1 m/S 682 mmHg 58%
    05:00 +10°C° 0 mm 1 m/S 682 mmHg 60%
    06:00 +10°C° 0 mm 1 m/S 683 mmHg 63%
    07:00 +12°C° 0 mm 1 m/S 683 mmHg 59%
    08:00 +14°C° 0 mm 2 m/S 684 mmHg 54%
    09:00 +16°C° 0 mm 3 m/S 684 mmHg 50%
    10:00 +17°C° 0 mm 3 m/S 685 mmHg 47%
    11:00 +18°C° 0 mm 3 m/S 685 mmHg 44%
    12:00 +19°C° 0 mm 3 m/S 685 mmHg 42%
    13:00 +19°C° 0 mm 3 m/S 685 mmHg 42%
    14:00 +19°C° 0 mm 3 m/S 685 mmHg 43%
    15:00 +19°C° 0 mm 4 m/S 685 mmHg 43%
    16:00 +18°C° 0 mm 3 m/S 685 mmHg 51%
    17:00 +16°C° 0 mm 3 m/S 685 mmHg 58%
    18:00 +15°C° 0 mm 2 m/S 685 mmHg 65%
    19:00 +14°C° 0 mm 2 m/S 686 mmHg 71%
    20:00 +13°C° 0 mm 1 m/S 686 mmHg 77%
    21:00 +12°C° 0 mm 1 m/S 686 mmHg 82%
    22:00 +11°C° 0 mm 1 m/S 686 mmHg 83%
    23:00 +11°C° 0 mm 1 m/S 686 mmHg 84%

    Morgen, 25 April, Mittwoch

    Zeit Temperatur Niederschläge Wind Luftdruck Luftfeuchtigkeit
    00:00 +11°C° 0 mm 1 m/S 686 mmHg 84%
    01:00 +11°C° 0 mm 1 m/S 686 mmHg 84%
    02:00 +10°C° 0 mm 1 m/S 686 mmHg 83%
    03:00 +10°C° 0 mm 1 m/S 686 mmHg 83%
    04:00 +10°C° 0 mm 1 m/S 687 mmHg 81%
    05:00 +11°C° 0 mm 1 m/S 687 mmHg 79%
    06:00 +11°C° 0 mm 1 m/S 687 mmHg 77%
    07:00 +13°C° 0 mm 1 m/S 687 mmHg 70%
    08:00 +14°C° 0 mm 1 m/S 687 mmHg 63%
    09:00 +16°C° 0 mm 2 m/S 688 mmHg 56%
    10:00 +17°C° 0 mm 2 m/S 687 mmHg 53%
    11:00 +18°C° 0 mm 2 m/S 687 mmHg 50%
    12:00 +19°C° 0 mm 2 m/S 687 mmHg 47%
    13:00 +20°C° 0 mm 2 m/S 687 mmHg 47%
    14:00 +20°C° 0 mm 2 m/S 686 mmHg 48%
    15:00 +20°C° 0 mm 2 m/S 686 mmHg 48%
    16:00 +19°C° 0 mm 2 m/S 685 mmHg 54%
    17:00 +18°C° 0 mm 2 m/S 685 mmHg 59%
    18:00 +17°C° 0 mm 2 m/S 685 mmHg 65%
    19:00 +16°C° 0 mm 1 m/S 685 mmHg 70%
    20:00 +15°C° 0 mm 1 m/S 685 mmHg 75%
    21:00 +13°C° 0 mm 1 m/S 685 mmHg 80%
    22:00 +13°C° 0 mm 1 m/S 685 mmHg 78%
    23:00 +13°C° 0 mm 1 m/S 685 mmHg 77%

    übermorgen, 26 April, Donnerstag

    Zeit Temperatur Niederschläge Wind Luftdruck Luftfeuchtigkeit
    00:00 +13°C° 0 mm 1 m/S 685 mmHg 75%
    01:00 +12°C° 0 mm 1 m/S 685 mmHg 75%
    02:00 +12°C° 0 mm 1 m/S 685 mmHg 75%
    03:00 +12°C° 0 mm 1 m/S 685 mmHg 75%
    04:00 +12°C° 0 mm 1 m/S 685 mmHg 73%
    05:00 +13°C° 0 mm 1 m/S 686 mmHg 72%
    06:00 +13°C° 0 mm 1 m/S 686 mmHg 71%
    07:00 +15°C° 0 mm 1 m/S 686 mmHg 64%
    08:00 +17°C° 0 mm 2 m/S 687 mmHg 58%
    09:00 +19°C° 0 mm 2 m/S 687 mmHg 51%
    10:00 +20°C° 0 mm 2 m/S 687 mmHg 48%
    11:00 +21°C° 0 mm 2 m/S 687 mmHg 46%
    12:00 +22°C° 0 mm 3 m/S 687 mmHg 43%
    13:00 +22°C° 0,1 mm 3 m/S 686 mmHg 43%
    14:00 +22°C° 0,1 mm 3 m/S 686 mmHg 44%
    15:00 +22°C° 0,1 mm 3 m/S 686 mmHg 44%
    16:00 +21°C° 0,2 mm 3 m/S 686 mmHg 49%
    17:00 +20°C° 0,2 mm 3 m/S 685 mmHg 54%
    18:00 +19°C° 0,2 mm 2 m/S 685 mmHg 59%
    19:00 +17°C° 0,1 mm 2 m/S 686 mmHg 64%
    20:00 +16°C° 0,1 mm 2 m/S 686 mmHg 68%
    21:00 +15°C° 0,1 mm 1 m/S 686 mmHg 73%
    22:00 +14°C° 0 mm 2 m/S 686 mmHg 74%
    23:00 +14°C° 0 mm 2 m/S 686 mmHg 74%

    27 April, Freitag

    Zeit Temperatur Niederschläge Wind Luftdruck Luftfeuchtigkeit
    00:00 +14°C° 0 mm 2 m/S 686 mmHg 75%
    01:00 +14°C° 0 mm 2 m/S 686 mmHg 74%
    02:00 +14°C° 0 mm 2 m/S 686 mmHg 73%
    03:00 +13°C° 0 mm 2 m/S 685 mmHg 72%
    04:00 +14°C° 0 mm 2 m/S 685 mmHg 70%
    05:00 +14°C° 0 mm 2 m/S 686 mmHg 69%
    06:00 +14°C° 0 mm 2 m/S 686 mmHg 67%
    07:00 +16°C° 0 mm 2 m/S 686 mmHg 61%
    08:00 +18°C° 0 mm 2 m/S 686 mmHg 55%
    09:00 +19°C° 0 mm 2 m/S 687 mmHg 50%
    10:00 +20°C° 0 mm 3 m/S 686 mmHg 48%
    11:00 +21°C° 0 mm 3 m/S 686 mmHg 45%
    12:00 +22°C° 0 mm 3 m/S 686 mmHg 43%
    13:00 +22°C° 0,1 mm 3 m/S 686 mmHg 45%
    14:00 +22°C° 0,1 mm 3 m/S 685 mmHg 47%
    15:00 +22°C° 0,1 mm 3 m/S 685 mmHg 49%
    16:00 +20°C° 0,4 mm 3 m/S 685 mmHg 55%
    17:00 +19°C° 0,4 mm 2 m/S 684 mmHg 62%
    18:00 +18°C° 0,4 mm 2 m/S 684 mmHg 68%
    19:00 +17°C° 0,2 mm 2 m/S 684 mmHg 71%
    20:00 +16°C° 0,2 mm 1 m/S 684 mmHg 73%
    21:00 +16°C° 0,2 mm 1 m/S 684 mmHg 75%
    22:00 +15°C° 0,2 mm 1 m/S 684 mmHg 75%
    23:00 +15°C° 0,2 mm 1 m/S 684 mmHg 75%

    28 April, Samstag

    Zeit Temperatur Niederschläge Wind Luftdruck Luftfeuchtigkeit
    00:00 +14°C° 0,2 mm 1 m/S 684 mmHg 75%
    01:00 +14°C° 0,2 mm 1 m/S 683 mmHg 73%
    02:00 +14°C° 0,2 mm 1 m/S 683 mmHg 72%
    03:00 +14°C° 0,2 mm 1 m/S 683 mmHg 71%
    04:00 +15°C° 0 mm 1 m/S 683 mmHg 70%
    05:00 +15°C° 0 mm 1 m/S 683 mmHg 69%
    06:00 +15°C° 0 mm 1 m/S 683 mmHg 68%
    07:00 +16°C° 0,1 mm 1 m/S 683 mmHg 63%
    08:00 +19°C° 0,1 mm 1 m/S 683 mmHg 58%
    09:00 +20°C° 0,1 mm 1 m/S 684 mmHg 53%
    10:00 +21°C° 0,2 mm 1 m/S 684 mmHg 51%
    11:00 +21°C° 0,2 mm 2 m/S 684 mmHg 50%
    12:00 +21°C° 0,2 mm 2 m/S 684 mmHg 48%
    13:00 +21°C° 0,4 mm 2 m/S 684 mmHg 50%
    14:00 +21°C° 0,4 mm 2 m/S 683 mmHg 51%
    15:00 +21°C° 0,4 mm 3 m/S 683 mmHg 52%
    16:00 +20°C° 0,4 mm 2 m/S 683 mmHg 57%
    17:00 +19°C° 0,4 mm 2 m/S 683 mmHg 62%
    18:00 +18°C° 0,4 mm 2 m/S 683 mmHg 66%
    19:00 +17°C° 0,3 mm 2 m/S 684 mmHg 70%
    20:00 +16°C° 0,3 mm 2 m/S 684 mmHg 74%
    21:00 +16°C° 0,3 mm 2 m/S 685 mmHg 78%
    22:00 +15°C° 0,2 mm 2 m/S 685 mmHg 79%
    23:00 +15°C° 0,2 mm 2 m/S 685 mmHg 79%

    29 April, Sonntag

    Zeit Temperatur Niederschläge Wind Luftdruck Luftfeuchtigkeit
    00:00 +15°C° 0,2 mm 2 m/S 685 mmHg 80%
    01:00 +14°C° 0 mm 2 m/S 685 mmHg 79%
    02:00 +14°C° 0 mm 2 m/S 685 mmHg 79%
    03:00 +14°C° 0 mm 1 m/S 685 mmHg 78%
    04:00 +14°C° 0,1 mm 1 m/S 685 mmHg 77%
    05:00 +14°C° 0,1 mm 1 m/S 686 mmHg 76%
    06:00 +14°C° 0,1 mm 1 m/S 686 mmHg 75%
    07:00 +16°C° 0,1 mm 2 m/S 687 mmHg 68%
    08:00 +17°C° 0,1 mm 2 m/S 687 mmHg 62%
    09:00 +18°C° 0,1 mm 2 m/S 687 mmHg 55%
    10:00 +19°C° 0,1 mm 3 m/S 687 mmHg 53%
    11:00 +20°C° 0,1 mm 3 m/S 687 mmHg 51%
    12:00 +21°C° 0,1 mm 3 m/S 687 mmHg 49%
    13:00 +21°C° 0,2 mm 3 m/S 687 mmHg 50%
    14:00 +20°C° 0,2 mm 3 m/S 686 mmHg 52%
    15:00 +20°C° 0,2 mm 3 m/S 686 mmHg 53%
    16:00 +20°C° 0,2 mm 3 m/S 686 mmHg 57%
    17:00 +19°C° 0,2 mm 3 m/S 686 mmHg 61%
    18:00 +18°C° 0,2 mm 3 m/S 686 mmHg 65%
    19:00 +17°C° 0 mm 2 m/S 686 mmHg 70%
    20:00 +16°C° 0 mm 2 m/S 686 mmHg 75%
    21:00 +15°C° 0 mm 2 m/S 687 mmHg 80%
    22:00 +14°C° 0 mm 2 m/S 687 mmHg 81%
    23:00 +14°C° 0 mm 2 m/S 687 mmHg 82%
    Mehr zeigen